Content
SEND FEEDBACK

Daily
Averages
Monthly
Summary
United States of America

ST. LOUIS - SAINT LOUIS UNIVERSITY, MISSOURI


Home > North America > United States > Missouri
Elevation: 580 feet     Latitude: 38 38N     Longitude: 090 14W

WEATHER
 
SELECT A DAY
Number of Records: 190,707;   Date Range: 1/1/95 - 12/18/14
 
SHARE

PRINT THIS DATA

[ ← Previous Day ]
WEATHER ALMANAC - JANUARY 7, 2013
[ Next Day → ]
[ °C ]   °F
Weather ElementAverageHighLow
Temperature32.1 °F42.1 °F (1:53 pm)19.9 °F (5:53 am)
Dewpoint23.5 °F28.9 °F (2:53 pm)17.1 °F (4:53 am)
Humidity71.3 %89 % (5:53 am)53 % (1:53 pm)
Barometer30.31 in30.43 in (2:53 am)30.17 in (11:53 pm)
Wind Speed6.3 mph11.5 mph (9:53 am)
Wind Gust18.4 mph (10:53 am)
Weather ElementAverage
Visibility9.1 mi
Wind DirectionESE (127 °)

Weather ElementTotal
Precipitation---
Heating Degree Days34 (Base 65)
Averaged from 23 records on January 7, 2013
WEATHER CONDITIONS BREAKOUT
WIND DIRECTION BREAKOUT
WEATHER BY HOUR - JANUARY 7, 2013
[ °C ]   °F
Local TimeTemperatureDewpointHumidityBarometerVisibilityWind DirectionWind SpeedGust SpeedPrecipitationEventsConditions
1:53 AM21.9 °F18.0 °F85 %30.42 in9.0 miCalmClear
2:53 AM21.9 °F18.0 °F85 %30.43 in9.0 miCalmClear
4:53 AM21.0 °F17.1 °F85 %30.41 in8.0 miCalmClear
5:53 AM19.9 °F17.1 °F89 %30.41 in8.0 miCalmClear
6:53 AM23.0 °F19.0 °F85 %30.41 in8.0 miSSE (150°)5.8 mphClear
7:53 AM24.1 °F19.9 °F84 %30.42 in7.0 miSSE (160°)6.9 mphClear
8:53 AM28.9 °F23.0 °F78 %30.42 in7.0 miSouth (170°)8.1 mphClear
9:53 AM32.0 °F24.1 °F73 %30.42 in8.0 miSouth (170°)11.5 mphClear
10:53 AM35.1 °F24.1 °F64 %30.39 in6.0 miSouth (170°)10.4 mph18.4 mphHaze
11:53 AM37.9 °F26.1 °F62 %30.36 in10.0 miSouth (170°)10.4 mphClear
12:53 PM39.9 °F26.1 °F58 %30.30 in10.0 miSouth (180°)8.1 mphClear
1:53 PM42.1 °F26.1 °F53 %30.27 in10.0 miSouth (190°)8.1 mph17.3 mphClear
2:53 PM42.1 °F28.9 °F60 %30.27 in10.0 miSSE (150°)10.4 mphClear
3:53 PM39.9 °F27.0 °F60 %30.25 in10.0 miSSE (150°)8.1 mphClear
4:53 PM37.0 °F27.0 °F67 %30.25 in10.0 miSSE (150°)5.8 mphClear
5:53 PM36.0 °F27.0 °F70 %30.22 in10.0 miSSE (150°)9.2 mphClear
6:53 PM35.1 °F26.1 °F70 %30.22 in10.0 miSSE (160°)6.9 mphClear
7:53 PM35.1 °F25.0 °F67 %30.20 in10.0 miSSE (160°)8.1 mphClear
8:52 PM33.8 °F24.8 °F70 %30.19 in10.0 miSSE (160°)5.8 mphClear
8:53 PM34.0 °F24.1 °F67 %30.20 in10.0 miVariable4.6 mphClear
9:53 PM34.0 °F24.1 °F67 %30.20 in10.0 miSSE (160°)6.9 mphClear
10:53 PM32.0 °F24.1 °F73 %30.19 in10.0 miSSE (160°)4.6 mphClear
11:53 PM32.0 °F23.0 °F69 %30.17 in10.0 miSSE (160°)4.6 mphClear
Hourly data recorded from KCPS, located miles away from St. Louis - Saint Louis University, Missouri







STORIES FROM OUR PARTNERS